Location: Stuart
(27.1975°N, 80.2528°W)
Time: 20:00:22
(UTC-04:00)

Hubble Space Telescope - Visible Passes

Search period start: 08 April 2020 00:00
Search period end: 18 April 2020 00:00
Orbit: 536 x 540 km, 28.5° (Epoch: 08 April)

Date Brightness Start Highest point End Pass type
(mag) Time Alt. Az. Time Alt. Az. Time Alt. Az.
08 Apr 0.9 21:28:09 10° W 21:31:55 69° NW 21:31:55 69° NW visible
09 Apr 0.7 21:17:32 10° W 21:21:40 73° N 21:21:59 68° NE visible
10 Apr 0.8 21:06:56 10° W 21:11:03 73° N 21:12:00 49° ENE visible
11 Apr 0.8 20:56:18 10° W 21:00:25 74° N 21:01:59 36° E visible
12 Apr 0.7 20:45:41 10° W 20:49:48 78° N 20:51:57 27° E visible
12 Apr 3.8 22:26:57 10° W 22:27:17 12° W 22:27:17 12° W visible
13 Apr 0.7 20:35:03 10° W 20:39:11 85° N 20:41:54 21° E visible
13 Apr 3.5 22:16:23 10° W 22:17:14 15° W 22:17:14 15° W visible
14 Apr 0.7 20:24:25 10° W 20:28:32 87° SSW 20:31:51 15° ESE visible
14 Apr 3.2 22:05:52 10° W 22:07:11 18° WSW 22:07:11 18° WSW visible
15 Apr 0.8 20:13:47 10° W 20:17:54 76° SSW 20:21:49 11° ESE visible
15 Apr 2.9 21:55:24 10° W 21:57:09 20° WSW 21:57:09 20° WSW visible
16 Apr 2.9 21:45:03 10° WSW 21:47:09 19° SW 21:47:09 19° SW visible
17 Apr 2.9 21:34:50 10° WSW 21:37:11 16° SSW 21:37:11 16° SSW visible
